Content
SEND FEEDBACK

Daily
Averages
Monthly
Summary
China

SHIDONGSI, CHINA


Home > Asia > China
Elevation: 1517 meters     Latitude: 36 03N     Longitude: 103 53E

WEATHER
 
SELECT A DAY
Number of Records: 112,526;   Date Range: 4/16/97 - 7/30/14
 
SHARE

PRINT THIS DATA

[ ← Previous Day ]
WEATHER ALMANAC - 31 JANUARY, 2013
[ Next Day → ]
[ °F ]   °C
Weather ElementAverageHighLow
Temperature-0.4 °C6 °C (3:00 pm)-6 °C (1:00 am)
Dewpoint-13.7 °C-10 °C (10:00 am)-19 °C (1:00 am)
Humidity38.1 %55 % (8:00 am)27 % (4:00 am)
Barometer1016.3 hPa1019 hPa (9:00 am)1011.2 hPa (1:00 am)
Wind Speed9.7 km/h14.3 km/h (1:00 am)
Weather ElementAverage
Wind DirectionESE (115.7 °)

Weather ElementTotal
Precipitation---
Heating Degree Days18.3 (Base 18.3)
Averaged from 23 records on 31 January, 2013
WEATHER CONDITIONS BREAKOUT
WIND DIRECTION BREAKOUT
WEATHER BY HOUR - 31 JANUARY, 2013
[ °F ]   °C
Local TimeTemperatureDewpointHumidityBarometerVisibilityWind DirectionWind SpeedGust SpeedPrecipitationEventsConditions
1:00 AM-6 °C-19 °C36 %1011.2 hPaNorth (350°)14.3 km/hClear
2:00 AM-4 °C-18 °C34 %1012.2 hPaVariable3.5 km/hClear
3:00 AM-4 °C-18 °C34 %1013.2 hPaCalmClear
4:00 AM0 °C-17 °C27 %1014.2 hPaNE (50°)14.3 km/hClear
5:00 AM-2 °C-17 °C31 %1014.2 hPaESE (110°)7.2 km/hClear
6:00 AM-3 °C-17 °C34 %1015.2 hPaVariable3.5 km/hClear
7:00 AM-3 °C-15 °C40 %1016.3 hPaVariable7.2 km/hClear
8:00 AM-3 °C-11 °C55 %1017.9 hPaVariable3.5 km/hClear
9:00 AM-3 °C-11 °C55 %1019 hPaNE (50°)7.2 km/hClear
10:00 AM-1 °C-10 °C51 %1019 hPaEast (90°)10.8 km/hClear
11:00 AM1 °C-11 °C41 %1019 hPaENE (70°)10.8 km/hClear
12:00 PM3 °C-12 °C33 %1017.9 hPaEast (80°)7.2 km/hClear
1:00 PM4 °C-12 °C31 %1017.3 hPaVariable7.2 km/hClear
2:00 PM5 °C-12 °C29 %1016.3 hPaVariable7.2 km/hClear
3:00 PM6 °C-12 °C27 %1015.2 hPaESE (120°)10.8 km/hClear
4:00 PM6 °C-12 °C27 %1015.2 hPaEast (90°)14.3 km/hClear
5:00 PM6 °C-12 °C27 %1016.3 hPaEast (100°)14.3 km/hClear
6:00 PM4 °C-13 °C28 %1016.3 hPaEast (100°)14.3 km/hClear
7:00 PM1 °C-13 °C35 %1017.3 hPaNE (50°)10.8 km/hClear
8:00 PM-3 °C-13 °C47 %1017.9 hPaNorth (360°)14.3 km/hClear
9:00 PM-4 °C-13 °C50 %1017.9 hPaNNW (340°)14.3 km/hClear
10:00 PM-4 °C-13 °C50 %1017.9 hPaNNW (340°)10.8 km/hClear
11:00 PM-6 °C-14 °C54 %1017.9 hPaNorth (360°)14.3 km/hClear
Hourly data recorded from ZLLL, located 0 kilometers away from Shidongsi, China







STORIES FROM OUR PARTNERS